Theta_e
325 313 303 296 289 285 281 284 286 292 294 294 295 291 288 289 291 290 294 294 294 293 295 296 317 320 324 326 329 331 333 334 338 340 343 347 348 348 347 347 347 347 347 348 349 350 349 350 350
317 311 300 290 285 281 283 287 289 290 296 294 291 291 288 286 291 292 289 293 293 292 293 295 313 316 319 322 324 327 328 330 332 334 338 341 344 347 347 347 347 347 346 347 347 347 347 349 349
312 303 295 287 282 282 283 288 290 291 294 294 289 288 286 285 291 290 291 292 291 291 292 295 310 312 315 317 318 321 323 325 327 328 332 335 338 341 344 346 346 345 346 347 347 347 347 345 348
301 299 293 286 283 286 286 287 293 291 291 291 288 282 287 289 290 289 290 290 289 289 290 294 306 308 310 313 314 316 317 319 321 323 326 328 331 333 335 336 338 342 345 345 345 346 347 347 347
298 293 287 284 284 287 288 289 290 289 288 286 289 282 283 287 289 289 288 289 287 287 289 289 302 304 306 309 310 312 313 314 315 316 319 323 322 325 328 330 332 334 338 343 345 344 345 348 348
295 291 285 282 284 288 289 288 288 286 285 285 285 283 282 286 286 287 287 287 288 286 288 288 294 299 302 304 306 307 309 309 310 310 312 314 314 316 321 322 325 328 332 336 340 345 344 346 346
292 287 283 282 285 286 289 288 285 283 282 282 284 280 281 283 287 287 286 286 286 287 286 286 287 290 295 298 302 303 305 305 305 305 307 307 306 308 313 315 318 321 325 329 334 339 344 344 345
293 290 284 283 285 285 288 288 286 284 280 285 284 279 277 282 286 286 286 285 285 285 285 285 285 286 286 287 297 298 300 300 301 300 301 301 299 301 305 307 310 314 318 321 327 332 337 341 343
294 286 283 286 286 286 287 285 285 285 280 280 281 280 282 285 286 284 283 283 283 284 284 284 284 284 285 287 288 291 294 295 295 294 296 294 291 292 296 301 304 307 312 315 320 325 327 331 337
291 285 286 288 288 285 285 286 284 283 280 279 279 282 284 283 282 281 280 280 280 281 282 283 283 283 283 286 285 285 286 286 287 287 288 288 289 290 293 295 299 302 305 309 311 313 318 319 325
289 286 289 289 288 289 285 283 284 282 278 279 278 279 281 280 280 280 280 280 279 281 282 282 283 283 282 283 283 284 284 285 285 285 286 287 288 288 289 289 291 293 299 299 300 302 307 310 315
287 288 289 289 289 288 284 283 279 280 279 281 281 281 280 279 278 279 279 279 279 280 281 282 282 282 282 282 282 283 282 284 283 284 285 286 286 285 287 287 288 290 294 293 297 299 302 307 310
286 286 287 286 285 283 283 280 278 277 280 280 281 280 278 278 278 279 279 280 279 279 280 281 282 282 281 281 281 281 281 282 283 283 284 285 285 283 286 285 287 288 290 291 294 297 299 304 307
287 286 286 287 285 284 280 279 280 278 279 279 278 278 277 277 278 278 278 278 278 279 280 281 281 281 281 280 280 280 281 281 282 282 283 284 284 283 285 284 285 287 288 290 292 295 296 299 303
287 282 282 282 285 282 283 278 277 278 278 277 277 277 277 278 277 277 278 278 278 279 280 280 281 282 280 280 280 280 281 281 280 281 282 282 283 282 283 283 284 286 286 288 291 292 295 297 300
285 283 278 278 281 283 280 276 276 277 276 275 275 275 276 277 277 277 279 279 279 278 278 279 281 280 280 280 279 280 280 280 280 280 281 282 282 282 282 282 283 285 285 287 289 289 290 292 297
278 276 279 277 278 280 279 274 276 276 275 273 273 274 274 275 277 277 278 278 279 278 278 278 279 279 279 280 280 280 280 279 279 280 280 281 282 282 281 281 282 284 284 285 288 286 288 289 292
274 273 273 273 275 275 275 273 273 275 274 272 271 272 273 275 275 277 278 278 278 278 278 278 278 278 279 279 279 279 278 279 279 278 279 281 281 281 280 281 282 282 283 283 284 284 287 288 290
272 271 270 272 275 272 272 273 272 273 272 269 269 270 272 274 276 276 277 278 278 277 277 277 277 277 277 277 277 277 277 278 278 279 280 280 280 281 280 280 281 281 281 281 283 283 286 286 288
272 270 269 272 275 272 270 271 272 271 270 270 270 270 271 272 274 276 277 276 276 276 276 276 277 278 278 278 278 278 277 278 279 279 279 280 280 280 280 279 280 280 280 280 281 281 284 284 287
270 269 268 269 272 271 270 268 268 271 271 272 271 272 273 272 272 274 276 275 275 275 275 276 277 277 277 277 278 278 278 278 278 278 278 279 279 280 280 280 280 279 279 279 280 281 283 280 283
271 272 272 271 269 266 269 266 265 268 268 270 269 269 270 272 273 274 276 275 275 276 276 275 277 277 277 277 277 275 274 274 276 276 278 278 279 279 280 280 279 279 279 278 279 281 280 280 280
272 273 271 271 268 265 267 263 264 267 266 266 266 267 268 269 271 273 274 276 276 277 274 274 275 276 277 277 275 275 274 275 276 276 276 276 278 278 279 279 279 278 279 279 278 279 279 280 281
275 271 271 269 268 261 265 265 264 263 262 260 262 267 269 269 271 273 275 276 275 274 275 275 275 276 276 275 275 274 273 273 274 275 274 276 277 278 278 279 279 278 278 278 278 279 279 279 281
272 269 268 266 262 265 267 264 265 261 260 261 264 268 268 266 267 270 270 270 273 273 274 275 275 275 275 275 275 275 274 274 274 274 275 275 275 276 277 277 278 278 278 278 279 278 278 279 279
270 269 267 263 263 262 264 260 264 259 258 260 263 263 269 270 270 269 270 270 272 273 272 273 273 273 274 274 275 275 275 275 275 275 275 275 275 276 277 277 277 278 278 278 278 278 278 279 279
269 268 269 263 260 258 262 263 262 266 267 266 265 270 269 270 270 269 270 271 270 271 272 270 272 272 273 274 274 274 274 274 274 275 275 275 276 277 277 277 277 277 277 278 278 277 277 279 279
270 271 265 266 261 259 259 256 261 259 263 264 263 266 266 268 269 270 271 271 271 272 272 273 271 271 272 272 273 274 274 274 275 275 275 275 276 276 276 276 276 277 277 277 277 277 278 278 278
268 266 267 266 263 259 256 259 259 262 264 264 264 266 264 265 267 269 270 270 271 271 271 272 272 272 272 273 272 272 273 274 275 275 275 276 276 276 276 276 276 276 276 277 276 277 277 277 277
268 267 267 266 261 259 256 259 259 259 259 260 263 269 267 268 268 268 268 269 269 270 270 271 272 272 273 273 273 272 273 274 273 274 275 276 276 277 276 276 276 276 276 276 276 276 277 277 277
Wind_Speed
6 4 2 6 6 7 1 2 1 3 5 5 9 9 13 12 7 3 8 17 19 16 16 20 30 29 30 30 30 30 30 30 30 29 29 25 16 12 10 10 8 6 6 5 6 6 6 8 8
3 1 5 3 7 4 4 1 5 4 6 8 8 6 10 7 7 4 9 19 18 16 15 18 28 28 29 29 30 30 30 30 30 30 28 28 28 19 15 13 11 10 9 7 6 5 5 6 6
1 4 4 5 4 5 5 4 5 4 7 3 6 9 5 6 10 6 12 17 17 15 16 17 28 28 28 29 29 30 30 30 30 30 30 28 28 28 25 21 17 14 12 9 8 6 4 5 6
3 5 5 6 4 6 3 3 6 5 5 9 7 10 6 9 4 9 10 15 13 15 16 19 28 28 27 29 30 30 31 30 29 29 30 29 28 28 27 26 24 23 17 12 9 8 5 5 6
5 3 5 5 3 2 3 4 4 5 5 5 3 6 5 6 7 7 10 11 13 14 14 15 27 28 27 29 31 31 30 30 29 29 30 29 29 28 27 27 27 25 23 21 13 9 9 9 10
5 3 4 3 4 4 4 3 3 5 6 4 6 6 3 3 6 6 8 8 9 11 13 14 22 28 27 29 30 30 29 29 29 29 30 29 28 28 28 27 26 26 24 22 21 14 11 9 10
6 4 3 4 6 3 3 3 5 4 4 6 2 5 4 6 6 6 6 6 8 10 12 12 14 19 23 26 29 29 28 29 29 29 29 28 27 28 28 27 28 27 25 24 21 20 14 12 12
5 6 3 1 5 4 2 4 3 7 4 2 4 5 2 3 6 5 4 5 8 10 11 12 13 14 15 13 26 27 27 28 28 29 29 27 26 28 28 27 27 27 26 25 22 22 18 18 14
2 6 2 4 6 5 2 5 4 6 8 6 5 4 5 3 4 5 5 9 9 11 12 12 13 13 13 12 15 19 23 25 25 23 27 19 12 15 19 23 26 26 26 25 25 23 22 20 14
6 4 3 2 2 5 4 6 6 5 5 7 8 6 5 4 4 7 8 9 11 11 12 11 11 13 13 11 12 12 13 11 12 14 15 11 13 13 16 18 25 24 25 24 26 25 23 16 9
4 4 3 5 6 6 5 4 3 7 4 4 8 7 5 5 6 7 7 7 7 8 9 12 10 11 12 10 8 6 7 8 8 13 13 11 10 10 9 8 9 10 17 10 14 14 10 13 10
7 7 4 3 4 5 4 5 6 5 5 10 9 8 5 6 6 6 6 7 9 10 10 11 10 11 11 7 7 7 8 8 8 10 14 11 8 10 10 8 10 9 9 12 10 8 12 13 13
5 3 6 6 11 9 9 5 8 7 9 9 10 8 6 6 5 4 4 5 6 10 10 11 9 9 9 9 7 8 8 7 8 9 11 10 9 10 9 9 9 9 9 10 10 10 11 12 13
4 8 6 4 5 5 8 6 5 4 8 10 9 7 6 6 5 4 6 7 8 8 9 9 9 8 8 7 8 6 6 8 8 7 8 11 9 9 10 10 9 9 9 9 10 11 11 11 11
6 6 3 4 2 3 9 3 3 13 9 10 8 7 6 4 4 5 5 6 6 5 6 7 9 9 8 8 7 6 6 7 7 7 9 10 10 10 10 9 9 9 10 12 10 10 10 10 11
4 4 2 1 3 5 0 4 4 10 12 8 7 5 4 4 4 4 4 4 6 6 7 6 7 8 7 6 5 4 4 4 5 6 6 8 10 11 9 9 9 9 9 9 10 10 10 10 10
5 3 3 2 3 2 5 1 8 7 8 7 6 5 4 2 1 3 4 4 5 6 8 10 10 9 10 10 8 8 8 4 4 4 6 7 9 10 9 8 8 10 9 9 9 10 10 10 11
4 3 3 4 3 3 4 4 7 9 10 9 8 6 4 2 2 5 6 6 6 6 6 6 6 8 8 7 6 4 4 5 4 4 5 7 7 9 8 8 8 9 9 9 9 11 10 10 11
3 1 3 2 1 3 6 6 12 10 7 9 8 7 5 4 3 4 4 6 6 6 6 6 6 7 5 4 5 6 6 6 4 4 8 7 7 7 8 6 8 8 7 10 11 10 13 11 10
2 2 4 3 1 3 4 10 7 10 5 7 9 7 6 3 4 4 6 5 6 6 7 7 7 8 7 4 4 3 5 6 6 6 6 6 7 9 9 8 7 8 7 9 9 11 10 9 7
1 3 2 3 6 4 5 8 5 5 4 6 6 6 5 4 5 5 6 6 7 7 7 7 7 8 7 7 5 5 6 6 6 6 7 6 7 9 9 9 8 8 7 7 8 9 11 8 9
3 3 2 3 4 5 3 10 5 5 6 8 8 7 6 5 4 5 7 8 7 8 7 7 8 9 8 7 8 7 7 8 8 8 8 8 9 9 10 10 9 8 6 7 8 9 7 8 10
1 2 1 1 2 4 2 0 4 4 7 10 8 8 8 7 5 7 7 8 8 9 7 7 7 9 9 7 7 8 9 8 7 8 10 10 9 8 9 9 9 8 7 7 9 9 8 7 9
1 3 2 3 2 2 3 4 6 6 7 3 3 7 8 7 6 7 7 7 8 7 7 6 9 9 10 7 9 9 11 11 9 10 9 9 8 7 8 10 9 9 9 9 8 8 10 8 10
4 3 4 5 3 5 2 1 10 5 5 6 8 9 8 5 6 7 7 8 9 9 9 8 10 13 11 10 10 11 12 11 11 10 9 11 9 9 9 9 9 8 9 10 9 9 9 9 8
2 1 5 7 4 6 4 9 8 6 4 5 4 4 5 6 5 6 8 8 8 8 8 9 10 12 13 12 12 11 12 8 9 10 9 9 10 10 12 10 11 11 11 10 9 8 8 10 8
5 4 4 6 4 2 4 7 5 2 3 2 5 5 9 6 5 7 8 7 7 8 9 8 11 12 12 13 12 12 11 12 11 14 12 10 12 11 13 12 11 12 12 12 10 8 10 10 9
2 5 4 3 3 7 6 7 8 4 7 6 6 10 7 5 6 7 7 7 7 8 10 11 8 11 11 11 11 12 13 13 13 12 14 14 13 14 14 13 12 12 12 12 11 10 10 10 8
4 3 3 3 5 6 5 8 8 10 9 10 9 7 7 6 7 7 8 7 8 9 10 11 11 11 12 12 12 12 13 13 13 13 13 14 14 14 14 14 13 13 13 12 12 12 12 12 11
3 7 7 5 7 3 3 13 4 7 5 4 6 5 5 6 6 7 7 7 8 9 10 11 12 12 13 12 12 13 14 14 13 13 15 14 15 14 14 14 13 13 13 13 13 13 12 12 12
Wind_Direction
343 345 43 43 60 67 15 322 281 72 76 344 58 68 94 43 24 78 327 7 353 356 354 342 2 4 9 10 11 15 17 18 13 13 14 13 1 1 356 337 325 315 297 276 253 234 183 169 169
348 0 43 80 89 78 273 342 44 10 128 160 52 17 43 68 7 69 10 349 356 358 357 343 5 6 11 12 14 16 17 17 14 12 12 13 15 5 4 347 338 335 326 313 289 274 244 168 158
115 50 72 84 114 157 165 55 105 48 60 24 101 46 56 4 38 17 348 354 357 2 1 351 8 10 12 15 15 18 17 18 16 12 9 11 11 15 17 16 3 345 332 317 301 295 267 230 169
43 14 37 76 50 15 52 8 113 140 66 46 113 72 77 26 25 13 346 2 360 2 4 0 10 13 14 14 17 19 19 16 16 13 9 12 11 9 9 12 12 10 357 324 306 291 266 238 221
33 62 63 72 86 98 50 84 46 81 106 19 30 119 73 41 13 13 360 0 6 360 2 4 11 13 15 15 17 18 18 17 16 14 12 9 10 9 7 6 7 5 1 356 317 289 278 252 229
37 89 68 165 140 138 97 15 93 60 38 48 75 91 84 2 20 1 359 359 7 3 5 7 8 11 14 15 18 17 17 15 15 14 13 9 10 7 5 5 3 0 356 353 350 321 285 267 248
109 80 156 117 145 131 112 79 58 89 35 28 335 76 138 29 8 356 359 353 4 10 12 10 7 8 8 13 15 15 15 14 14 13 12 9 7 7 4 2 360 357 354 350 345 346 323 276 258
103 94 105 98 184 172 35 83 113 47 59 26 6 110 94 347 6 356 4 3 12 17 16 9 7 6 1 9 10 13 13 13 12 12 9 8 7 4 1 360 357 354 350 348 343 342 334 335 267
102 65 149 171 155 148 124 99 46 59 87 49 33 79 103 38 21 24 11 14 15 17 15 8 7 6 2 7 3 6 7 11 10 8 6 4 5 358 358 352 353 352 348 346 344 343 337 331 311
70 93 138 39 69 123 73 89 123 115 117 84 88 80 85 49 35 39 27 17 13 7 5 7 7 5 2 3 3 3 1 4 2 2 1 1 1 355 356 352 352 350 347 345 344 341 338 341 334
24 88 127 17 103 115 103 78 80 129 64 167 146 132 96 69 48 42 31 24 2 353 3 3 2 5 5 2 2 1 360 1 356 359 0 356 355 352 353 348 349 343 344 349 342 339 337 328 323
85 36 47 21 35 75 76 100 61 34 92 107 115 122 116 76 52 32 26 9 1 1 360 357 359 5 5 360 2 357 359 3 355 352 353 353 355 350 350 347 343 344 341 339 338 330 324 322 316
80 115 53 82 78 72 76 61 119 95 111 110 111 100 84 73 60 37 24 10 359 6 356 355 352 4 0 4 359 357 357 358 347 350 348 348 354 344 340 339 337 337 343 334 329 327 322 317 316
69 88 129 56 79 105 111 151 98 192 143 122 112 97 80 64 37 19 21 13 10 359 353 346 350 357 349 354 351 350 350 352 348 346 343 342 350 341 340 334 335 332 340 329 321 323 322 312 310
137 89 74 20 117 116 133 151 216 153 150 136 134 126 112 101 65 38 8 358 344 334 328 344 351 350 343 341 339 339 338 344 342 339 338 336 346 338 337 328 330 328 331 326 318 325 323 316 312
65 83 160 19 360 177 149 244 137 161 151 150 143 128 110 73 49 16 347 328 326 334 344 324 331 328 324 320 310 299 298 316 326 329 325 326 337 335 335 325 327 327 326 323 325 331 323 315 313
13 222 214 233 40 187 195 247 155 170 154 152 146 139 120 72 343 309 320 322 322 330 338 340 339 332 329 329 329 326 323 303 286 295 315 320 331 328 331 319 319 329 322 326 326 325 317 315 311
206 233 270 250 356 343 214 216 168 176 168 167 165 163 166 207 289 307 318 321 333 333 323 310 313 310 315 309 302 290 289 297 303 293 290 310 316 316 324 314 318 326 322 322 327 320 313 314 306
93 139 253 245 13 314 233 232 193 179 165 169 178 185 198 225 277 292 315 319 318 310 310 300 292 301 308 320 328 325 316 313 287 283 287 296 302 299 313 307 315 317 317 316 318 318 313 319 325
133 185 238 285 252 341 259 249 194 181 182 180 178 190 207 246 308 329 328 311 306 292 291 308 313 316 313 301 289 276 299 300 288 283 275 266 283 300 306 309 304 309 309 311 315 317 309 316 344
160 210 195 247 318 239 319 260 188 191 162 177 194 199 211 236 291 316 313 298 290 289 301 314 304 298 297 292 303 296 290 291 300 304 303 293 276 277 285 288 289 297 302 304 309 306 310 318 311
230 130 83 305 5 263 344 287 237 190 197 204 200 209 228 257 297 292 304 304 309 317 319 312 309 313 310 307 310 299 297 297 296 291 291 292 283 265 274 283 286 285 291 293 296 298 324 303 302
79 38 328 202 189 9 205 165 279 128 226 219 215 227 244 247 259 284 285 297 313 314 299 294 296 300 302 292 292 296 296 291 293 291 295 295 290 273 261 265 274 274 280 280 283 287 294 288 283
69 96 85 65 88 315 185 157 264 190 212 239 234 228 243 256 273 287 285 316 300 294 293 295 303 300 308 295 290 286 285 290 296 299 298 295 293 290 275 265 269 269 272 276 277 278 279 279 284
58 43 315 328 349 249 67 193 258 239 225 208 194 211 232 249 272 284 314 304 301 304 302 306 314 306 307 301 297 295 291 292 287 289 292 294 294 291 284 275 270 271 269 268 274 275 273 273 276
95 144 164 260 283 292 320 239 262 221 271 243 245 235 251 260 264 290 279 278 297 297 291 295 299 299 304 303 300 297 294 292 289 285 284 284 286 284 283 277 270 268 268 265 268 269 269 264 266
160 179 150 118 172 353 247 286 324 306 296 260 244 231 247 253 277 274 287 292 284 293 300 289 297 299 296 297 299 298 296 291 288 288 286 284 282 280 280 281 280 274 271 269 266 262 264 261 264
226 136 89 35 287 270 267 276 247 246 229 238 246 237 250 263 277 290 296 289 291 299 299 301 289 286 287 289 292 295 295 292 287 288 286 284 282 281 280 278 273 269 266 266 264 262 261 261 260
153 184 92 113 177 205 293 258 210 203 198 204 227 235 231 257 279 288 289 289 297 299 298 298 302 302 302 301 295 294 295 293 290 288 286 284 283 280 277 274 272 268 265 262 263 259 260 261 261
190 187 167 170 211 219 153 274 203 210 208 196 247 239 232 239 270 281 284 292 296 291 293 297 303 305 304 301 300 298 295 295 292 288 287 285 280 277 274 272 268 265 262 260 258 260 260 261 262